THOR ABLESTAR DEB, 119

Orbit data source: Space-Track

THOR ABLESTAR DEB, 119 is space debris in LEO originally from a launch on Thu, 29 Jun 1961 UTC launched from the Air Force Eastern Test Range (AFETR). Debris objects in space refer to the collection of defunct objects orbiting the Earth. Examples of debris include non-operational satellites, rocket bodies, and fragments generated from explosions, collisions, or faulty payload assembly.

Loading next visibility...
Identifier
119, 1961-015D
Orbit
LEO
Last TLE update
16 hours ago
Origin
Manufacturer
Unknown
Mission
Spacecraft
Bus & Motor
Unknown
Mass
Unknown
Launch date (UTC)
1961-06-29 (64 years ago)
Launch vehicle
Unknown
Launch site
Air Force Eastern Test Range (AFETR)
Object type
Payload
Rocket body
Debris
Shape & HBR
Unknown
Radar Cross Section
0.250 m², Medium (>0.1 m² and < 1m²)

Expand to show TLE details & history

TLE from 16 hours ago
0 THOR ABLESTAR DEB
1 00119U 61015D   25182.51687633  .00000432  00000-0  20290-3 0  9996
2 00119  66.7253 220.4413 0097782 158.3977 202.1290 14.26635722308286
Epoch: 2025-07-01T12:24Z
TLE epoch observation values (Epoch: 2025-07-01T12:24:18.114Z)
Latitude
-0.00001°
Longitude
114.55462°
Altitude
870.254 km
Speed
7.384 km/s
True Right ascension
14h 41m 45s
True Declination
0° 00' 00"
Sunlit
Object was in daylight at epoch
Visualization orbit readout
Latitude
-65.17897°
Longitude
0.46966°
Altitude
841.94 km
Speed
7.423 km/s
Apparent Right ascension
05h 26m 54s
Apparent Declination
-54° 44' 35"
Sunlit
Object is in daylight
Visualization observer readout
Local Sidereal Time
16:26:59
Azimuth
209.062° SW
Elevation
-72.112°
Doppler factor
1
Orbital elements
Apogee altitude
871.575 km
Perigee altitude
731.17 km
Semi-major axis
7,179.51 km
Eccentricity
0.00978
Inclination
66.7253°
RAAN
220.4413°
Arg. of periapsis
158.3977°
True anomaly
Unknown
Mean anomaly
202.129°
Eccentric anomaly
Unknown
Mean motion
3.5678 °/min
Orbital period
100.9 mins
BSTAR
0.0002029
Loading maneuver chart data...
Loading SW <> Apogee altitude chart data...

THOR ABLESTAR DEB Visibility forecast

Observer location: undefined°, undefined°

Span
Click to sort rows by Start time (UTC) header in descending order
Start Az.
Max El. time (UTC)
Max El. Az.
Max El.
End time (UTC)
End Az.
8 mins2025-07-02 05:24:31.798Z257.85° W2025-07-02 05:28:31.798Z309.87° NW24.246°2025-07-02 05:32:31.798Z3.308° NNE
8 mins2025-07-02 12:30:31.798Z353.273° N2025-07-02 12:34:31.798Z61.364° ENE29.391°2025-07-02 12:38:31.798Z116.998° SE
7 mins2025-07-02 14:14:31.798Z301.251° NW2025-07-02 14:17:31.798Z255.272° W25.888°2025-07-02 14:21:31.798Z194.919° SSW
9 mins2025-07-03 03:13:31.798Z172.187° S2025-07-03 03:17:31.798Z115.054° SE31.445°2025-07-03 03:22:31.798Z46.147° ENE
|